Other Public Products
Issued by NWS Grand Forks, ND

Home | Current Version | Previous Version | Graphics & Text | Print | Product List | Glossary On
Versions: 1 2 3 4 5 6 7 8 9 10 11 12 13 14 15 16 17 18 19 20 21 22 23 24 25 26 27 28 29 30 31 32 33 34 35 36 37 38 39 40 41 42 43 44 45 46 47 48 49 50
000
FPUS83 KFGF 272031
OPUFGF
PRAIRIE TO PINES WEATHER ROUNDUP
NATIONAL WEATHER SERVICE EASTERN NORTH DAKOTA/GRAND FORKS ND
300 PM CDT WED JUL 27 2016

 **SATELLITE DATA USED TO AUGMENT SKY COVER AT AUTOMATED STATIONS**
 *****  WEATHER ACROSS EASTERN NORTH DAKOTA  *****

CITY           SKY/WX    TMP DP  RH WIND       PRES   REMARKS
GRAND FORKS    MOSUNNY   77  59  53 N14G24    30.06S
GRAND FORKS AF MOSUNNY   75  58  55 N13       30.08S
GRAND CITY NWS   N/A     77 N/A N/A NW12        N/A
BUXTON         NOT AVBL
DEVILS LAKE    PTSUNNY   73  58  59 NE9       30.14S
FARGO          SUNNY     79  59  50 N17       30.04S
WAHPETON ARPT  CLEAR     79  54  41 N17       30.02F
$$

 *****  WEATHER ACROSS CENTRAL AND WESTERN NORTH DAKOTA  *****

CITY           SKY/WX    TMP DP  RH WIND       PRES   REMARKS
JAMESTOWN      SUNNY     76  60  57 NE9       30.10S
BISMARCK       CLOUDY    75  62  64 E7        30.11F
MINOT          CLOUDY    77  58  51 NE9       30.13F
MINOT AFB      PTSUNNY   73  57  58 E10       30.13S
GARRISON         N/A     75  60  59 E7        30.12F
WILLISTON      LGT RAIN  68  59  73 N8        30.14S
DICKINSON      CLOUDY    71  60  68 E6        30.12F
HETTINGER      LGT RAIN  66  61  84 NE7       30.15F
$$

 *****  OTHER OBSERVATIONS NORTHEAST NORTH DAKOTA  *****

CITY           SKY/WX    TMP DP  RH WIND       PRES   REMARKS
WALHALLA       FAIR      72  68  88 N9        30.12S
LANGDON        FAIR      72  55  56 N9        30.14F
CAVALIER       FAIR      75  55  50 N12       30.11S
GRAFTON        FAIR      75  59  57 N16       30.11R
CANDO          MOCLDY    72  57  60 N10       30.17R
FORT TOTTEN      N/A     76  60  57 N5        29.95S
ROLLA            N/A     70  55  60 NE10      30.16F
RUGBY          NOT AVBL
 ***** THE ABOVE OBSERVATIONS ARE NON NWS ARE NOT QUALITY
        CONTROLLED AND MAY MIS-REPORT RAIN FOR SNOW...
$$

 *****  OTHER OBSERVATIONS SOUTHEAST NORTH DAKOTA *****

CITY           SKY/WX    TMP DP  RH WIND       PRES   REMARKS
COOPERSTOWN    NOT AVBL
VALLEY CITY    FAIR      75  59  57 N12G18    30.10S
OAKES            N/A    N/A N/A N/A MISG        N/A
GWINNER        FAIR      79  61  53 N13       30.06F
SHEYENNE NWR     N/A     79  56  45 N9        29.95S
BUFFALO        NOT AVBL
WYNDMERE         N/A     79  61  53 N13         N/A
 ***** THE ABOVE OBSERVATIONS ARE NON NWS ARE NOT QUALITY
       CONTROLLED AND MAY MIS-REPORT RAIN FOR SNOW...
$$

  *****  WEATHER ACROSS NORTHERN MINNESOTA  *****

CITY           SKY/WX    TMP DP  RH WIND       PRES   REMARKS
FLAG ISLAND    SUNNY     72  57  60 N13       30.07F
WARROAD        SUNNY     75  63  64 NE12G17   30.07S
ROSEAU         SUNNY     77  64  65 E12       30.05F
HALLOCK        SUNNY     75  61  60 NW12      30.08R
THF RVR FALLS  PTSUNNY   75  60  59 N14       30.04F
HALSTAD        NOT AVBL
FOSSTON        SUNNY     77  57  50 CALM      30.03F
BAUDETTE       PTSUNNY   76  57  51 NE5       30.05S
WASKISH        CLOUDY    75  61  60 NE5       30.03S
CROOKSTON      MOSUNNY   77  59  53 N14       30.05R
$$
  *****  WEATHER ACROSS CENTRAL AND WEST MINNESOTA  *****

CITY           SKY/WX    TMP DP  RH WIND       PRES   REMARKS
BEMIDJI        PTSUNNY   72  63  73 E13       30.03F
PARK RAPIDS    PTSUNNY   76  61  59 N10G17    30.02F
WADENA         MOSUNNY   72  63  73 N8        30.01S
DETROIT LAKES  SUNNY     77  59  53 NW13G20   30.03F
MOORHEAD       SUNNY     75  61  60 N16       30.04F
FERGUS FALLS   SUNNY     79  61  53 N10G20    30.02S
ELBOW LAKE     MOCLDY    77  64  64 N13       30.01S
MORRIS MN      MOSUNNY   81  64  57 N15       29.99S
STAPLES        MOSUNNY   73  61  64 N7        30.01R
WHEATON        SUNNY     81  63  54 N10G18    30.03F
$$
  *****  WEATHER ELSEWHERE ACROSS MINNESOTA  *****

CITY           SKY/WX    TMP DP  RH WIND       PRES   REMARKS
DULUTH         LGT RAIN  65  57  75 E13       30.03S
INTRNTL FALLS  MOSUNNY   75  56  51 NE3       30.05S
ELY            CLOUDY    70  59  68 NE3       30.05S
CLOQUET        CLOUDY    64  61  88 E8        30.02F
BRAINERD       PTSUNNY   72  66  81 N7        29.99S
HIBBING        CLOUDY    65  61  87 E8        30.04F
ALEXANDRIA     PTSUNNY   77  64  64 NW13      30.01F
SAINT CLOUD    CLOUDY    75  67  76 N10G17    29.96S
MINNEAPOLIS    LGT RAIN  77  70  79 SW7       29.92F
$$

  *****  WEATHER ACROSS SOUTH DAKOTA  *****

CITY           SKY/WX    TMP DP  RH WIND       PRES   REMARKS
SIOUX FALLS    MOSUNNY   82  67  60 N12       30.00S
BROOKINGS      PTSUNNY   78  65  63 NE10G18   30.01F
WATERTOWN      SUNNY     80  62  54 NE15      30.02F
HURON          MOSUNNY   83  64  52 NE13      30.02R
SISSETON         N/A     79  61  53 N15       30.01F
ABERDEEN       SUNNY     80  63  55 NE15      30.05S
MITCHELL       MOSUNNY   85  64  49 N12       30.01F
PIERRE         PTSUNNY   87  60  40 NE15      30.02F
MOBRIDGE       CLOUDY    82  61  48 NE9       30.06S
RAPID CITY     PTSUNNY   76  60  57 NE12      30.12F
$$

  *****  SOME WEATHER IN NEARBY STATES *****

CITY           SKY/WX    TMP DP  RH WIND       PRES   REMARKS
GLASGOW MT     CLOUDY    73  59  61 E8        30.13F
GREAT FALLS MT SUNNY     81  50  33 N8        30.16F
CHEYENNE WY    SUNNY     83  51  33 VRB6      30.23F
SCOTTSBLUFF NE SUNNY     87  50  27 NE5       30.12F
OMAHA NE       MOSUNNY   83  69  62 NE9       29.97S
DES MOINES IA  CLOUDY    83  69  62 SW6       29.96F
DAVENPORT IA   MOSUNNY   84  67  56 MISG      29.97F
CHICAGO IL     PTSUNNY   87  63  44 VRB3      29.95F
EAU CLAIRE WI  CLOUDY    83  68  60 S13       29.92F
LA CROSSE WI   CLOUDY    84  68  58 S9        29.95F
$$

  *****  SOME NATIONAL WEATHER *****

CITY           SKY/WX    TMP DP  RH WIND       PRES   REMARKS
LA GUARDIA NY  MOSUNNY   93  59  31 SW7       29.89F HX  92
RALEIGH NC     CLOUDY    87  80  79 CALM      29.94F HX 103
ATLANTA GA     PTSUNNY   88  70  55 SW9       30.04F HX  93
NEW ORLEANS LA PTSUNNY   85  74  69 W15G25    30.06S HX  92
OKLAHOMA CITY  PTSUNNY   89  71  55 CALM      29.94F HX  95
ALBUQUERQUE NM MOSUNNY   88  53  30 VRB3      30.17F
SALT LAKE CITY MOSUNNY   99  30   9 NW14      30.11F HX  93
LOS ANGELES CA MOSUNNY   79  65  62 W10       29.92F
BOISE ID       SUNNY     94  45  18 CALM      30.02F HX  90
SEATTLE WA     MOSUNNY   75  61  61 NW9       30.14S
$$

*** WEATHER ACROSS MANITOBA...SASKATCHEWAN AND ONTARIO ***
                ***ONTARIO***

CITY           SKY/WX    TMP DP  RH WIND       PRES   REMARKS
GERALDTON      MOSUNNY   70  50  49 NW9       30.02F
THUNDER BAY    PTSUNNY   75  59  57 SE10      30.02S
SIOUX LOOKOUT  MOSUNNY   68  54  60 NW8       30.11S
TORONTO        MOSUNNY   93  61  33 W17G26    29.88F HX  93
BIG TROUT LK   NOT AVBL
PICKLE LAKE    PTSUNNY   68  46  45 NW6       30.09S
DRYDEN         CLOUDY    68  54  60 NE6       30.10F
KENORA         PTSUNNY   70  55  60 NE9G17    30.11S
$$
                *** MANITOBA***

CITY           SKY/WX    TMP DP  RH WIND       PRES   REMARKS
BRANDON        CLOUDY    70  54  56 NE14      30.16F
DAUPHIN        MOSUNNY   72  54  53 NE3       30.17F
ISLAND LAKE    MOSUNNY   68  48  49 NW3       30.15
PILOT MOUND      N/A     68  54  60 N9          N/A
THE PAS        MOSUNNY   75  50  41 SE10      30.13F
THOMPSON       MOSUNNY   73  48  40 SW3       30.12F
WINNIPEG       PTSUNNY   72  54  53 NE10      30.13F
LYNN LAKE      LGT RAIN  66  57  72 MISG      30.09R
CHURCHILL      MOSUNNY   64  48  55 E8        30.09F
GILLAM         MOSUNNY   66  46  48 NW5       30.13F
$$
                ***SASKATCHEWAN***

CITY           SKY/WX    TMP DP  RH WIND       PRES   REMARKS
ESTEVAN        PTSUNNY   72  57  60 NE8       30.15F
KINDERSLEY     MOSUNNY   73  57  56 SE5       30.17S
LLOYDMINSTER   PTSUNNY   79  57  47 SW7       30.13F
PRINCE ALBERT  PTSUNNY   77  55  47 SW6       30.14F
REGINA         PTSUNNY   73  55  53 S7        30.16S
YORKTON        MOSUNNY   72  50  46 NE8       30.18S   C1F1C2F2C3F3C4F4C5F5C6F6C7F7C8F8C9F9CaFaCbFbCcFcCdFdCe!



USA.gov is the U.S. government's official web portal to all federal, state and local government web resources and services.